Track SAR LUPE 3 now! 10-day predictions SAR LUPE 3 is classified as:
1 32283U 07053A 25189.86814105 .00043725 00000-0 41287-3 0 9997 2 32283 98.1602 339.9188 0006597 246.9845 113.0717 15.66893167986872